CW9804 Weather Reports


Display with metric or nautical units.
time (UTC)temp
F
wind
direction
speed
MPH
gust
MPH
rain 1hr
in
rain 24hr
in
rain mn
in
humidity
%
barometer
mb
20260502194910 58 151 0.0 1.0 0.00 0.00 0.00 66 1021.1
20260502193410 59 151 0.0 2.0 0.00 0.00 0.00 65 1021.1
20260502191910 61 151 2.0 4.0 0.00 0.00 0.00 60 1021.0
20260502190410 63 194 1.0 2.0 0.00 0.00 0.00 57 1021.0
20260502184912 63 189 1.0 3.0 0.00 0.00 0.00 57 1020.8
20260502183412 64 159 1.0 4.0 0.00 0.00 0.00 55 1020.7
20260502181912 65 185 1.0 5.0 0.00 0.00 0.00 53 1020.6
20260502130411 74 192 1.0 2.0 0.00 0.00 0.00 46 1022.9
20260502123410 74 92 2.0 4.0 0.00 0.00 0.00 41 1023.2
20260502121910 73 67 2.0 4.0 0.00 0.00 0.00 39 1023.4
20260502120410 73 88 0.0 4.0 0.00 0.00 0.00 41 1023.5
20260502114910 72 340 1.0 3.0 0.00 0.00 0.00 38 1023.6
20260502113410 71 315 2.0 6.0 0.00 0.00 0.00 39 1023.7
20260502111910 71 45 0.0 3.0 0.00 0.00 0.00 42 1023.8
20260502110409 72 86 1.0 5.0 0.00 0.00 0.00 40 1024.0
20260502104914 72 40 3.0 7.0 0.00 0.00 0.00 40 1024.3
20260502103414 70 52 2.0 6.0 0.00 0.00 0.00 47 1024.3
20260502101914 69 78 2.0 5.0 0.00 0.00 0.00 42 1024.5
20260502100414 68 229 2.0 4.0 0.00 0.00 0.00 44 1024.7
20260502090414 64 306 2.0 7.0 0.00 0.00 0.00 50 1025.5